Flag for Germany Weather past 2 weeks in Heilbronn, Baden-Württemberg, Germany

Now
62 °F

Partly sunny.


Feels Like: 62 °F
Forecast: 45 / 66 °F
Wind: 3 mph from Northeast

Location: Oehringen


UV Index: 3 (Moderate)

Visibility: 7 mi


Pressure: 29.78 "Hg

Humidity: 59%

Dew point: 47 °F

Location of HeilbronnLocation

Historic Weather in Heilbronn

°F

Heilbronn temperature yesterday

Maximum temperature yesterday: 50 °F (at 3:00 PM)
Minimum temperature yesterday: 40 °F (at 5:00 PM)
Average temperature yesterday: 44 °F

Past Weeks' High & Low Weather Summary

 TemperatureHumidityPressure
High72 °F (Apr 7, 4:00 PM)98% (Apr 19, 4:00 AM)30.42 "Hg (Apr 19, 4:00 AM)
Low32 °F (Apr 16, 7:00 AM)24% (Apr 17, 4:00 PM)29.68 "Hg (Apr 4, 6:00 PM)
Average52 °F66%30.09 "Hg
* Reported Apr 4 6:00 PM — Apr 19 6:00 PM, Heilbronn, Weather by CustomWeather, © 2014

Note: Actual official high and low records may vary slightly from our data, if they occured in-between our weather recording intervals... More about our weather records

Advertising

Historic Weather Conditions — Data for Previous 24 hours

 ConditionsComfort  
Time TempWeatherWind HumidityBarometerVisibility
6:00 PM
Apr 19
63 °FSunny.3 mph57%29.78 "Hg7 mi
5:00 PM62 °FOvercast.3 mph55%29.79 "Hg8 mi
4:00 PM62 °FSunny.3 mph53%29.80 "Hg11 mi
3:00 PM57 °FPartly sunny.5 mph60%29.85 "Hg8 mi
2:00 PM55 °FOvercast.5 mph64%29.88 "Hg8 mi
1:00 PM54 °FPartly sunny.5 mph66%29.90 "Hg7 mi
12:00 PM48 °FOvercast.3 mph75%29.93 "Hg6 mi
11:00 AM46 °FOvercast.3 mph77%29.95 "Hg6 mi
10:00 AM44 °FPartly sunny.3 mph83%29.96 "Hg7 mi
9:00 AM40 °FOvercast.2 mph92%29.97 "Hg6 mi
8:00 AM39 °FOvercast.2 mph94%29.96 "Hg7 mi
7:00 AM38 °FOvercast.1 mph97%29.96 "Hg6 mi
6:00 AM37 °FOvercast.1 mph97%29.96 "Hg9 mi
5:00 AM37 °FOvercast.1 mph98%29.96 "Hg7 mi
4:00 AM38 °FOvercast.1 mph98%29.96 "Hg5 mi
3:00 AM38 °FOvercast.1 mph97%29.96 "Hg6 mi
2:00 AM39 °FOvercast.1 mph97%29.98 "Hg9 mi
1:00 AM40 °FOvercast.1 mph97%29.97 "Hg8 mi
12:00 AM40 °FOvercast.1 mph96%29.98 "Hg9 mi
11:00 PM
Apr 18
41 °FOvercast.1 mph93%29.97 "Hg31 mi
10:00 PM41 °FLight freezing rain. Overcast.1 mph93%29.98 "Hg14 mi
9:00 PM42 °FOvercast.1 mph89%29.97 "Hg43 mi
8:00 PM42 °FRain. Overcast.1 mph88%29.93 "Hg8 mi
7:00 PM42 °FOvercast.1 mph86%29.92 "Hg43 mi
Weather by CustomWeather, © 2014

See weather overview